Regional Weather Roundup
Issued by NWS Albany, NY

Home | Current Version | Previous Version | Text Only | Print | Product List | Glossary On
Versions: 1 2 3 4 5 6 7 8 9 10 11 12 13 14 15 16 17 18 19 20 21 22 23 24 25 26 27
000
ASUS41 KALY 300210
RWRALY

NEW YORK STATE HOURLY WEATHER ROUNDUP
NATIONAL WEATHER SERVICE ALBANY NY
1000 PM EDT THU SEP 29 2016

NOTE: "FAIR" INDICATES FEW OR NO CLOUDS BELOW 12,000 FEET WITH NO
SIGNIFICANT WEATHER AND/OR NO OBSTRUCTIONS TO VISIBILITY.

NYZ032-033-038>043-046>054-057>066-NYZ062>081-082-084-300300-
EAST


CITY           SKY/WX    TMP DP  RH WIND       PRES   REMARKS
ALBANY         MOCLDY    56  45  66 NE6       30.45R
GLENS FALLS    CLOUDY    59  43  55 NE7       30.46R
POUGHKEEPSIE   CLOUDY    58  45  62 NE7       30.41R
NEWBURGH       MOCLDY    59  48  67 E16       30.42S
MONTGOMERY     CLOUDY    59  48  67 NE9       30.41R
WHITE PLAINS   PTCLDY    57  47  69 E10       30.40R
ISLIP          CLOUDY    59  51  75 NE17G25   30.38S
NEW YORK CITY  CLOUDY    64  53  67 E18G25    30.37S
CENTRAL PARK   CLOUDY    61  51  70 NE12G24   30.40S
$$

NYZ005>009-017-018-044>046-055-056-300300-
CENTRAL


CITY           SKY/WX    TMP DP  RH WIND       PRES   REMARKS
FULTON         CLOUDY    60  50  69 VRB5      30.38F
SYRACUSE       CLOUDY    57  49  74 NE6       30.37S
ROME           CLOUDY    58  48  69 E7        30.42R
ELMIRA         CLOUDY    57  53  86 NE6       30.34R
BINGHAMTON     CLOUDY    54  46  74 E9        30.35S
MONTICELLO     CLOUDY    55  45  67 E17G24    30.40F
$$

NYZ026>034-041>043-087-300300-
NORTH


CITY           SKY/WX    TMP DP  RH WIND       PRES   REMARKS
WATERTOWN      MOCLDY    56  50  80 NE8       30.42R
FORT DRUM      NOT AVBL
OGDENSBURG     FAIR      58  47  66 E7        30.46R
MASSENA        CLOUDY    58  46  64 NE12      30.48F
SARANAC LAKE   CLOUDY    54  45  71 NE10      30.46S
PLATTSBURGH    PTCLDY    58  46  64 NW7       30.48S
$$

NYZ001>004-010>016-019>021-085-300300-
WEST


CITY           SKY/WX    TMP DP  RH WIND       PRES   REMARKS
NIAGARA FALLS  CLOUDY    59  51  75 E14       30.32R
BUFFALO        CLOUDY    57  53  86 E13       30.32R
DUNKIRK        CLOUDY    62  55  77 NE13      30.26S
JAMESTOWN      CLOUDY    57  52  82 E8G16     30.26S
WELLSVILLE     CLOUDY    54  51  90 SE13G18   30.34F
ROCHESTER      CLOUDY    60  49  66 E10       30.36S
PENN YAN       CLOUDY    56  52  86 CALM      30.37R
$$

             KEY
       WCI = WIND CHILL INDEX
       VSB = VISIBILITY
       HX  = HEAT INDEX
$$




USA.gov is the U.S. government's official web portal to all federal, state and local government web resources and services.